Oberbuscherhof, Germany

6:51 AM CEST on April 21, 2018 (GMT +0200)
Oberbuscherhof

Weather History for 10400 - May, 2013

Change the Weather History Date:

Tuesday, May 14, 2013

  Actual Average Record
Temperature  
Mean Temperature 52 °F -  
Max Temperature 57 °F 67 °F - ()
Min Temperature 47 °F 49 °F - ()
Degree Days  
Heating Degree Days 13    
Growing Degree Days 2 (Base 50)    
Moisture  
Dew Point 42 °F    
Average Humidity 68    
Maximum Humidity 94    
Minimum Humidity 44    
Precipitation  
Precipitation 0.00 in - - ()
Sea Level Pressure  
Sea Level Pressure 29.81 in    
Wind  
Wind Speed 11 mph ()    
Max Wind Speed 21 mph    
Max Gust Speed -    
Visibility 8.6 miles    
Events Rain    
T = Trace of Precipitation, MM = Missing Value Source: Averaged Metar Reports

Daily Weather History Graph

Daily Weather History Graph

Search for Another Location

Airport or City:

Astronomy

May. 14, 2013 Rise Set
Actual Time 5:43 AM CEST 9:16 PM CEST
Civil Twilight 5:02 AM CEST 9:57 PM CEST
Nautical Twilight 4:07 AM CEST 10:53 PM CEST
Astronomical Twilight 2:47 AM CEST 12:15 AM CEST
Moon 9:08 AM CEST (5/14) 12:13 AM CEST (5/14)
Length of Visible Light 16h 54m
Length of Day
15h 32m
Waxing Crescent, 17% of the Moon is Illuminated
May 14
Waxing Crescent
May 18
First Quarter
May 25
Full
May 31
Last Quarter
Jun 8
New

Hourly Weather History & Observations

Time (CEST) Temp. Dew Point Humidity Pressure Visibility Wind Dir Wind Speed Gust Speed Precip Events Conditions
12:00 AM 53 °F 42 °F 56% 29.89 in 22 mi WSW 11.2 mph - -   Mostly Cloudy
12:20 AM 53.6 °F 39.2 °F 58% 29.89 in 6.2 mi WSW 20.7 mph - N/A   Mostly Cloudy
12:50 AM 51.8 °F 39.2 °F 62% 29.89 in 6.2 mi SW 17.3 mph - N/A   Mostly Cloudy
1:00 AM 52 °F 40 °F 52% 29.89 in 22 mi SW 17.9 mph - -   Mostly Cloudy
1:20 AM 51.8 °F 39.2 °F 62% 29.86 in 6.2 mi SW 13.8 mph - N/A   Mostly Cloudy
2:00 AM 51 °F 40 °F 55% 29.88 in 22 mi SW 13.4 mph - -   Mostly Cloudy
2:20 AM 50.0 °F 39.2 °F 66% 29.86 in 6.2 mi SW 11.5 mph - N/A   Mostly Cloudy
2:50 AM 48.2 °F 39.2 °F 71% 29.86 in - SW 11.5 mph - N/A   Clear
3:00 AM 48 °F 40 °F 64% 29.87 in 22 mi SW 11.2 mph - -   Partly Cloudy
3:20 AM 48.2 °F 41.0 °F 76% 29.86 in - SW 11.5 mph - N/A   Clear
3:50 AM 50.0 °F 39.2 °F 66% 29.86 in - SW 12.7 mph - N/A   Clear
4:00 AM 49 °F 40 °F 62% 29.86 in 22 mi SW 11.2 mph - -   Mostly Cloudy
4:20 AM 50.0 °F 39.2 °F 66% 29.86 in - SW 11.5 mph - N/A   Clear
4:50 AM 50.0 °F 39.2 °F 66% 29.86 in - SW 11.5 mph - N/A   Clear
5:20 AM 48.2 °F 39.2 °F 71% 29.86 in 6.2 mi SW 10.4 mph - N/A   Mostly Cloudy
5:50 AM 48.2 °F 39.2 °F 71% 29.86 in 6.2 mi SW 11.5 mph - N/A   Mostly Cloudy
6:00 AM 48 °F 40 °F 65% 29.86 in 19 mi SW 11.2 mph - -   Scattered Clouds
6:20 AM 48.2 °F 39.2 °F 71% 29.86 in 6.2 mi SW 12.7 mph - N/A   Mostly Cloudy
6:50 AM 48.2 °F 41.0 °F 76% 29.86 in 6.2 mi SW 10.4 mph - N/A   Mostly Cloudy
7:00 AM 49 °F 41 °F 64% 29.86 in 19 mi SW 11.2 mph - -   Mostly Cloudy
7:20 AM 50.0 °F 41.0 °F 71% 29.86 in 6.2 mi SW 11.5 mph - N/A   Mostly Cloudy
7:50 AM 50.0 °F 41.0 °F 71% 29.86 in 6.2 mi SW 11.5 mph - N/A   Mostly Cloudy
8:00 AM 49 °F 41 °F 67% 29.87 in 19 mi SW 11.2 mph - -   Scattered Clouds
8:20 AM 50.0 °F 41.0 °F 71% 29.86 in 6.2 mi SW 13.8 mph - N/A   Mostly Cloudy
8:50 AM 50.0 °F 41.0 °F 71% 29.86 in 6.2 mi SW 12.7 mph - N/A   Mostly Cloudy
9:00 AM 50 °F 40 °F 60% 29.87 in 22 mi SW 11.2 mph - -   Scattered Clouds
9:20 AM 51.8 °F 41.0 °F 67% 29.86 in 6.2 mi SW 15.0 mph - N/A   Mostly Cloudy
9:50 AM 51.8 °F 41.0 °F 67% 29.86 in 6.2 mi SW 11.5 mph - N/A   Mostly Cloudy
10:00 AM 52 °F 40 °F 55% 29.87 in 19 mi SW 11.2 mph - -   Scattered Clouds
10:20 AM 53.6 °F 42.8 °F 67% 29.86 in 6.2 mi SW 15.0 mph - N/A   Mostly Cloudy
10:50 AM 53.6 °F 41.0 °F 62% 29.86 in 6.2 mi SW 15.0 mph - N/A   Mostly Cloudy
11:20 AM 53.6 °F 41.0 °F 62% 29.86 in 6.2 mi SW 15.0 mph - N/A   Mostly Cloudy
11:50 AM 55.4 °F 41.0 °F 58% 29.83 in 6.2 mi SW 15.0 mph - N/A   Mostly Cloudy
12:00 PM 55 °F 41 °F 49% 29.85 in 19 mi SW 13.4 mph - -   Scattered Clouds
12:20 PM 55.4 °F 41.0 °F 58% 29.83 in 6.2 mi SW 13.8 mph - N/A   Mostly Cloudy
12:50 PM 55.4 °F 41.0 °F 58% 29.83 in 6.2 mi SSW 13.8 mph - N/A Rain Light Rain
1:00 PM 54 °F 42 °F 53% 29.84 in 19 mi SSW 13.4 mph - - Rain Light Rain
1:20 PM 53.6 °F 42.8 °F 67% 29.83 in 6.2 mi SW 16.1 mph - N/A Rain Light Rain
1:50 PM 57.2 °F 42.8 °F 59% 29.80 in 6.2 mi SSW 13.8 mph - N/A   Overcast
2:00 PM 56 °F 42 °F 48% 29.82 in 22 mi SSW 13.4 mph - - Rain Light Rain
2:20 PM 57.2 °F 41.0 °F 55% 29.80 in 6.2 mi SW 13.8 mph - N/A   Mostly Cloudy
2:50 PM 57.2 °F 41.0 °F 55% 29.80 in 6.2 mi SSW 13.8 mph - N/A   Overcast
3:00 PM 58 °F 42 °F 44% 29.80 in 25 mi SSW 13.4 mph - -   Overcast
3:20 PM 57.2 °F 41.0 °F 55% 29.80 in 6.2 mi SW 11.5 mph - N/A   Mostly Cloudy
3:50 PM 55.4 °F 39.2 °F 54% 29.77 in 6.2 mi SSW 13.8 mph - N/A Rain Light Rain
4:00 PM 55 °F 40 °F 45% 29.79 in 22 mi SSW 13.4 mph - - Rain Light Rain
4:20 PM 55.4 °F 41.0 °F 58% 29.77 in 6.2 mi SSW 12.7 mph - N/A Rain Light Rain
4:50 PM 55.4 °F 42.8 °F 63% 29.77 in 6.2 mi South 11.5 mph - N/A Rain Light Rain
5:20 PM 55.4 °F 42.8 °F 63% 29.77 in 6.2 mi South 10.4 mph - N/A Rain Light Rain
5:50 PM 53.6 °F 44.6 °F 72% 29.77 in 6.2 mi South 12.7 mph - N/A Rain Light Rain
6:00 PM 54 °F 44 °F 60% 29.77 in 12 mi South 13.4 mph - - Rain Light Rain
6:20 PM 51.8 °F 44.6 °F 76% 29.77 in 6.2 mi WSW 9.2 mph - N/A Rain Light Rain
6:50 PM 51.8 °F 46.4 °F 82% 29.74 in 6.2 mi West 5.8 mph - N/A Rain Light Rain
7:00 PM 51 °F 46 °F 76% 29.76 in 16 mi West 4.5 mph - - Rain Light Rain
7:20 PM 51.8 °F 46.4 °F 82% 29.74 in 6.2 mi West 3.5 mph - N/A Rain Light Rain
7:50 PM 51.8 °F 46.4 °F 82% 29.74 in 6.2 mi NE 3.5 mph - N/A Rain Light Rain
8:00 PM 51 °F 47 °F 81% 29.74 in 16 mi NE 2.2 mph - - Rain Light Rain
8:20 PM 51.8 °F 48.2 °F 88% 29.71 in 6.2 mi NE 4.6 mph - N/A Rain Light Rain
8:50 PM 50.0 °F 46.4 °F 87% 29.71 in 6.2 mi NE 5.8 mph - N/A Rain Light Rain
9:00 PM 50 °F 47 °F 85% 29.71 in 9 mi NE 4.5 mph - - Rain Light Rain
9:20 PM 50.0 °F 46.4 °F 87% 29.68 in - NNE 5.8 mph - N/A   Clear
9:50 PM 50.0 °F 46.4 °F 87% 29.68 in - ENE 6.9 mph - N/A   Clear
10:00 PM 49 °F 47 °F 91% 29.69 in 16 mi ENE 6.7 mph - - Rain Light Rain
10:20 PM 50.0 °F 48.2 °F 94% 29.68 in - NE 4.6 mph - N/A   Clear
10:50 PM 50.0 °F 48.2 °F 94% 29.65 in - NNE 4.6 mph - N/A   Clear
11:20 PM 50.0 °F 46.4 °F 87% 29.65 in - NNE 4.6 mph - N/A   Clear
11:50 PM 50.0 °F 46.4 °F 87% 29.62 in - NE 3.5 mph - N/A   Clear